THOR ABLESTAR DEB, 325

Orbit data source: Space-Track

THOR ABLESTAR DEB, 325 is space debris in LEO originally from a launch on Thu, 29 Jun 1961 UTC launched from the Air Force Eastern Test Range (AFETR). Debris objects in space refer to the collection of defunct objects orbiting the Earth. Examples of debris include non-operational satellites, rocket bodies, and fragments generated from explosions, collisions, or faulty payload assembly.

Loading next visibility...
Identifier
325, 1961-015DB
Orbit
LEO
Last TLE update
13 hours ago
Origin
Manufacturer
Unknown
Mission
Spacecraft
Bus & Motor
Unknown
Mass
Unknown
Launch date (UTC)
1961-06-29 (64 years ago)
Launch vehicle
Unknown
Launch site
Air Force Eastern Test Range (AFETR)
Object type
Payload
Rocket body
Debris
Shape & HBR
Unknown
Radar Cross Section
Small (<0.1 m²)

Expand to show TLE details & history

TLE from 13 hours ago
0 THOR ABLESTAR DEB
1 00325U 61015DB  25198.75054206  .00000352  00000-0  19096-3 0  9995
2 00325  66.9127 240.6445 0064955 282.6258  76.7580 14.22368718285583
Epoch: 2025-07-17T18:00Z
TLE epoch observation values (Epoch: 2025-07-17T18:00:46.833Z)
Latitude
-0.00004°
Longitude
34.63748°
Altitude
809.05 km
Speed
7.455 km/s
True Right ascension
16h 02m 34s
True Declination
0° 00' 00"
Sunlit
Object was in full shadow at epoch
Visualization orbit readout
Latitude
-58.11559°
Longitude
-9.73862°
Altitude
793.056 km
Speed
7.48 km/s
Apparent Right ascension
10h 07m 59s
Apparent Declination
-55° 59' 45"
Sunlit
Object is in daylight
Visualization observer readout
Local Sidereal Time
19:57:01
Azimuth
222.167° SW
Elevation
-63.216°
Doppler factor
1
Orbital elements
Apogee altitude
862.437 km
Perigee altitude
768.981 km
Semi-major axis
7,193.846 km
Eccentricity
0.0065
Inclination
66.9127°
RAAN
240.6445°
Arg. of periapsis
282.6258°
True anomaly
77.48387°
Mean anomaly
76.758°
Eccentric anomaly
77.1208°
Mean motion
3.55714 °/min
Orbital period
101.2 mins
BSTAR
0.00019096
Loading maneuver chart data...
Loading SW <> Apogee altitude chart data...
|